Hourly Data Report for January 03, 2020

TORONTO CITY
ONTARIO
Current Station Operator: ECCC - MSC

43°40'00.000" N
79°24'00.000" W
112.50 m
6158355
71508
XTO

Download Data

Hourly Data (January 2020)
Hourly Data Report for January 3, 2020
TIME
LST
Temp Definition
°C
Dew Point Definition
°C
Rel Hum Definition
%
Precip. Amount Definition
mm

Wind Dir Definition
10's deg

Wind Spd Definition
km/h
Visibility Definition
km
Stn Press Definition
kPa
Hmdx Definition


Wind Chill Definition


Weather Definition


00:00 5.3 0.8 73 0.0       99.05     LegendNANA
01:00 6.2 1.3 71 0.0       99.10     LegendNANA
02:00 6.9 1.7 70 0.0       99.18     LegendNANA
03:00 6.8 2.0 71 0.0       99.11     LegendNANA
04:00 6.0 1.8 75 0.0       99.13     LegendNANA
05:00 5.9 2.2 77 0.0       99.10     LegendNANA
06:00 6.3 2.7 78 0.0       99.15     LegendNANA
07:00 6.5 2.8 77 0.0       99.17     LegendNANA
08:00 6.4 2.6 77 0.0       99.23     LegendNANA
09:00 6.6 2.8 77 0.0       99.32     LegendNANA
10:00 7.3 2.8 73 0.0       99.37     LegendNANA
11:00 7.6 2.4 70 0.0       99.39     LegendNANA
12:00 7.5 2.0 68 0.0       99.32     LegendNANA
13:00 7.4 1.7 67 0.0       99.28     LegendNANA
14:00 7.2 1.0 65 0.0       99.31     LegendNANA
15:00 6.9 0.3 63 0.0       99.39     LegendNANA
16:00 6.8 0.1 63 0.0       99.40     LegendNANA
17:00 6.5 0.1 63 0.0       99.44     LegendNANA
18:00 6.4 -1.0 59 0.0       99.53     LegendNANA
19:00 5.9 -1.6 59 0.0       99.60     LegendNANA
20:00 5.1 -0.4 68 0.0       99.63     LegendNANA
21:00 4.6 -0.6 69 0.0       99.64     LegendNANA
22:00 4.2 -0.9 69 0.0       99.58     LegendNANA
23:00 4.1 -1.3 68 0.0       99.59     LegendNANA

Notes on Data Quality.

Legend

  • E = Estimated
  • M = Missing
  • NA = Not Available*
  • [empty] = Indicates an unobserved value
Date modified: